When you browse on this site, cookies collect data to enhance your experience and personalize the content and advertising you see.
Visit our Privacy Policy to learn more. By continuing to use the site, you agree to this use of cookies and data.
  • In United Kingdom
  • List of Countries
  • For 7 days
  • Water Temperature
  • Weather Map
  • Weather Widgets
  • user-avatar
    Login

    Hourly Weather Wabal

    Today, 8 December, Sunday

    Time Temperature Precipitation Wind Pressure Humidity
    00:00 +24°C° 1.8 mm 0 mps 751 mmHg 97%
    01:00 +24°C° 1.8 mm 0 mps 750 mmHg 98%
    02:00 +23°C° 1 mm 0 mps 750 mmHg 98%
    03:00 +23°C° 1 mm 0 mps 750 mmHg 98%
    04:00 +23°C° 0 mm 0 mps 750 mmHg 98%
    05:00 +23°C° 0.1 mm 0 mps 750 mmHg 97%
    06:00 +23°C° 0.1 mm 0 mps 751 mmHg 96%
    07:00 +24°C° 0.1 mm 0 mps 751 mmHg 96%
    08:00 +26°C° 0.2 mm 0 mps 751 mmHg 87%
    09:00 +28°C° 0.2 mm 0 mps 751 mmHg 79%
    10:00 +30°C° 0.2 mm 0 mps 751 mmHg 71%
    11:00 +31°C° 0.1 mm 0 mps 750 mmHg 66%
    12:00 +34°C° 0.1 mm 1 mps 749 mmHg 60%
    13:00 +35°C° 0.1 mm 1 mps 748 mmHg 55%
    14:00 +35°C° 0.1 mm 1 mps 748 mmHg 56%
    15:00 +35°C° 0.1 mm 1 mps 748 mmHg 58%
    16:00 +34°C° 0.1 mm 1 mps 747 mmHg 59%
    17:00 +32°C° 1.3 mm 1 mps 748 mmHg 71%
    18:00 +29°C° 1.3 mm 1 mps 749 mmHg 84%
    19:00 +27°C° 1.3 mm 1 mps 749 mmHg 96%
    20:00 +27°C° 1.4 mm 1 mps 750 mmHg 96%
    21:00 +26°C° 1.4 mm 1 mps 751 mmHg 97%
    22:00 +24°C° 1.4 mm 0 mps 751 mmHg 97%
    23:00 +24°C° 0.8 mm 0 mps 751 mmHg 97%

    Tomorrow, 9 December, Monday

    Time Temperature Precipitation Wind Pressure Humidity
    00:00 +24°C° 0.8 mm 0 mps 750 mmHg 97%
    01:00 +24°C° 0.8 mm 0 mps 750 mmHg 96%
    02:00 +23°C° 0.1 mm 0 mps 750 mmHg 96%
    03:00 +23°C° 0.1 mm 0 mps 750 mmHg 96%
    04:00 +23°C° 0.1 mm 0 mps 750 mmHg 96%
    05:00 +24°C° 0 mm 0 mps 750 mmHg 95%
    06:00 +24°C° 0 mm 0 mps 750 mmHg 95%
    07:00 +24°C° 0 mm 0 mps 751 mmHg 94%
    08:00 +26°C° 0.1 mm 0 mps 751 mmHg 85%
    09:00 +30°C° 0.1 mm 1 mps 751 mmHg 76%
    10:00 +32°C° 0.1 mm 1 mps 751 mmHg 67%
    11:00 +33°C° 0.4 mm 1 mps 750 mmHg 64%
    12:00 +34°C° 0.4 mm 1 mps 749 mmHg 61%
    13:00 +35°C° 0.4 mm 1 mps 749 mmHg 58%
    14:00 +33°C° 1.3 mm 1 mps 748 mmHg 67%
    15:00 +30°C° 1.3 mm 0 mps 748 mmHg 76%
    16:00 +29°C° 1.3 mm 0 mps 748 mmHg 86%
    17:00 +28°C° 0.9 mm 0 mps 748 mmHg 89%
    18:00 +26°C° 0.9 mm 0 mps 749 mmHg 92%
    19:00 +24°C° 0.9 mm 0 mps 749 mmHg 96%
    20:00 +24°C° 0.1 mm 0 mps 750 mmHg 96%
    21:00 +24°C° 0.1 mm 0 mps 750 mmHg 96%
    22:00 +23°C° 0.1 mm 0 mps 751 mmHg 96%
    23:00 +23°C° 0.3 mm 0 mps 751 mmHg 96%

    Day after tomorrow, 10 December, Tuesday

    Time Temperature Precipitation Wind Pressure Humidity
    00:00 +23°C° 0.3 mm 0 mps 750 mmHg 96%
    01:00 +23°C° 0.3 mm 0 mps 750 mmHg 97%
    02:00 +23°C° 0.2 mm 0 mps 750 mmHg 97%
    03:00 +22°C° 0.2 mm 0 mps 749 mmHg 97%
    04:00 +22°C° 0.2 mm 0 mps 749 mmHg 97%
    05:00 +23°C° 0 mm 0 mps 749 mmHg 96%
    06:00 +23°C° 0 mm 0 mps 750 mmHg 95%
    07:00 +23°C° 0 mm 0 mps 750 mmHg 94%
    08:00 +26°C° 0.1 mm 0 mps 750 mmHg 85%
    09:00 +28°C° 0.1 mm 0 mps 750 mmHg 75%
    10:00 +30°C° 0.1 mm 0 mps 750 mmHg 65%
    11:00 +32°C° 0.2 mm 0 mps 749 mmHg 60%
    12:00 +33°C° 0.2 mm 0 mps 749 mmHg 55%
    13:00 +35°C° 0.2 mm 0 mps 748 mmHg 49%
    14:00 +33°C° 0.3 mm 0 mps 747 mmHg 55%
    15:00 +34°C° 0.3 mm 1 mps 747 mmHg 61%
    16:00 +33°C° 0.3 mm 1 mps 747 mmHg 67%
    17:00 +31°C° 1.2 mm 1 mps 747 mmHg 76%
    18:00 +29°C° 1.2 mm 1 mps 748 mmHg 86%
    19:00 +27°C° 1.2 mm 1 mps 749 mmHg 95%
    20:00 +24°C° 0.8 mm 0 mps 749 mmHg 96%
    21:00 +24°C° 0.8 mm 0 mps 750 mmHg 96%
    22:00 +23°C° 0.8 mm 0 mps 750 mmHg 96%
    23:00 +23°C° 0.3 mm 0 mps 750 mmHg 97%

    11 December, Wednesday

    Time Temperature Precipitation Wind Pressure Humidity
    00:00 +23°C° 0.3 mm 0 mps 750 mmHg 97%
    01:00 +23°C° 0.3 mm 0 mps 750 mmHg 97%
    02:00 +23°C° 0.1 mm 0 mps 749 mmHg 97%
    03:00 +22°C° 0.1 mm 0 mps 749 mmHg 97%
    04:00 +22°C° 0.1 mm 0 mps 749 mmHg 97%
    05:00 +23°C° 0 mm 0 mps 749 mmHg 96%
    06:00 +23°C° 0 mm 0 mps 749 mmHg 95%
    07:00 +23°C° 0 mm 0 mps 750 mmHg 95%
    08:00 +26°C° 0 mm 0 mps 750 mmHg 84%
    09:00 +28°C° 0 mm 0 mps 750 mmHg 73%
    10:00 +31°C° 0 mm 0 mps 750 mmHg 63%
    11:00 +34°C° 0.1 mm 1 mps 749 mmHg 59%
    12:00 +35°C° 0.1 mm 1 mps 748 mmHg 55%
    13:00 +36°C° 0.1 mm 1 mps 748 mmHg 50%
    14:00 +35°C° 0.5 mm 1 mps 747 mmHg 58%
    15:00 +33°C° 0.5 mm 1 mps 747 mmHg 66%
    16:00 +32°C° 0.5 mm 1 mps 747 mmHg 74%
    17:00 +30°C° 1.3 mm 1 mps 747 mmHg 81%
    18:00 +29°C° 1.3 mm 1 mps 748 mmHg 88%
    19:00 +25°C° 1.3 mm 0 mps 748 mmHg 95%
    20:00 +24°C° 1 mm 0 mps 749 mmHg 96%
    21:00 +24°C° 1 mm 0 mps 749 mmHg 97%
    22:00 +24°C° 1 mm 0 mps 750 mmHg 97%
    23:00 +24°C° 0.3 mm 0 mps 750 mmHg 97%

    12 December, Thursday

    Time Temperature Precipitation Wind Pressure Humidity
    00:00 +24°C° 0.3 mm 0 mps 749 mmHg 97%
    01:00 +23°C° 0.3 mm 0 mps 749 mmHg 97%
    02:00 +23°C° 0 mm 0 mps 749 mmHg 97%
    03:00 +23°C° 0 mm 0 mps 749 mmHg 97%
    04:00 +23°C° 0 mm 0 mps 748 mmHg 97%
    05:00 +23°C° 0 mm 0 mps 749 mmHg 97%
    06:00 +24°C° 0 mm 0 mps 749 mmHg 96%
    07:00 +24°C° 0 mm 0 mps 750 mmHg 96%
    08:00 +26°C° 0 mm 0 mps 750 mmHg 87%
    09:00 +28°C° 0 mm 0 mps 750 mmHg 78%
    10:00 +30°C° 0 mm 0 mps 750 mmHg 69%
    11:00 +31°C° 0.2 mm 0 mps 749 mmHg 66%
    12:00 +34°C° 0.2 mm 1 mps 749 mmHg 62%
    13:00 +35°C° 0.2 mm 1 mps 748 mmHg 59%
    14:00 +33°C° 0.9 mm 1 mps 748 mmHg 67%
    15:00 +32°C° 0.9 mm 1 mps 747 mmHg 76%
    16:00 +31°C° 0.9 mm 1 mps 747 mmHg 84%
    17:00 +30°C° 0.6 mm 1 mps 747 mmHg 88%
    18:00 +28°C° 0.6 mm 1 mps 748 mmHg 92%
    19:00 +25°C° 0.6 mm 0 mps 749 mmHg 96%
    20:00 +25°C° 0 mm 0 mps 749 mmHg 97%
    21:00 +24°C° 0 mm 0 mps 749 mmHg 97%
    22:00 +24°C° 0 mm 0 mps 750 mmHg 97%
    23:00 +24°C° 0 mm 0 mps 750 mmHg 97%

    13 December, Friday

    Time Temperature Precipitation Wind Pressure Humidity
    00:00 +24°C° 0 mm 0 mps 749 mmHg 97%
    01:00 +24°C° 0 mm 0 mps 749 mmHg 98%
    02:00 +24°C° 0.1 mm 0 mps 749 mmHg 98%
    03:00 +23°C° 0.1 mm 0 mps 749 mmHg 98%
    04:00 +23°C° 0.1 mm 0 mps 748 mmHg 98%
    05:00 +24°C° 0 mm 0 mps 749 mmHg 97%
    06:00 +24°C° 0 mm 0 mps 749 mmHg 97%
    07:00 +24°C° 0 mm 0 mps 750 mmHg 96%
    08:00 +26°C° 0.3 mm 0 mps 750 mmHg 89%
    09:00 +28°C° 0.3 mm 0 mps 750 mmHg 81%
    10:00 +31°C° 0.3 mm 1 mps 750 mmHg 74%
    11:00 +32°C° 0.3 mm 1 mps 749 mmHg 70%
    12:00 +33°C° 0.3 mm 1 mps 748 mmHg 67%
    13:00 +34°C° 0.3 mm 1 mps 748 mmHg 63%
    14:00 +33°C° 0.6 mm 1 mps 747 mmHg 66%
    15:00 +33°C° 0.6 mm 1 mps 747 mmHg 69%
    16:00 +32°C° 0.6 mm 1 mps 747 mmHg 72%
    17:00 +31°C° 1.3 mm 1 mps 747 mmHg 80%
    18:00 +29°C° 1.3 mm 1 mps 748 mmHg 87%
    19:00 +25°C° 1.3 mm 0 mps 749 mmHg 94%
    20:00 +25°C° 3.3 mm 0 mps 749 mmHg 95%
    21:00 +25°C° 3.3 mm 0 mps 749 mmHg 96%
    22:00 +24°C° 3.3 mm 0 mps 750 mmHg 97%
    23:00 +24°C° 1.7 mm 0 mps 750 mmHg 97%
    Show more